Precipitable_Water
1.22 1.25 1.27 1.29 1.27 1.19 1.14 1.12 1.10 1.13 1.08 1.09 1.10 1.06 1.06 1.06 1.07 1.07 1.05 1.05 1.02 0.98 0.93 0.89 0.88 0.90 0.89 0.87 0.86 0.81 0.85 0.84 0.81 0.82 0.81 0.81 0.81 0.81 0.81 0.77 0.82 0.84 0.86 0.88 0.89 0.93 0.94 0.97 0.99 1.00 1.07 1.09 1.11 1.07 1.06 1.09 1.07 1.04 0.95 0.83 0.71 0.71 0.71 0.62 0.55 0.51 0.56 0.57 0.54 0.50 0.51 0.56 0.55 0.58 0.59 0.62 0.59 0.60 0.66 0.69 0.68 0.65 0.67 0.69 0.68
1.20 1.23 1.19 1.23 1.16 1.09 1.12 1.16 1.17 1.17 1.12 1.11 1.07 1.06 1.05 1.06 1.08 1.06 1.05 1.05 1.04 0.98 0.96 0.92 0.88 0.89 0.88 0.86 0.86 0.82 0.85 0.85 0.78 0.78 0.79 0.80 0.74 0.71 0.71 0.72 0.75 0.76 0.78 0.77 0.88 0.90 0.98 0.95 0.98 1.01 1.07 1.09 1.04 1.00 1.03 1.04 1.00 0.96 0.83 0.76 0.68 0.64 0.69 0.61 0.57 0.49 0.51 0.60 0.58 0.58 0.55 0.58 0.55 0.61 0.60 0.63 0.64 0.63 0.65 0.72 0.75 0.73 0.75 0.75 0.75
1.26 1.22 1.25 1.21 1.19 1.15 1.18 1.18 1.21 1.18 1.13 1.11 1.07 1.06 1.06 1.08 1.10 1.06 1.05 1.05 1.04 1.01 0.97 0.91 0.89 0.88 0.85 0.83 0.83 0.83 0.84 0.85 0.78 0.77 0.77 0.74 0.73 0.73 0.73 0.73 0.72 0.71 0.72 0.73 0.79 0.91 0.89 0.94 0.96 0.99 1.02 1.02 0.98 0.98 1.01 0.97 0.93 0.87 0.81 0.79 0.72 0.63 0.58 0.59 0.57 0.50 0.50 0.53 0.62 0.58 0.59 0.61 0.58 0.58 0.62 0.67 0.70 0.69 0.68 0.71 0.73 0.74 0.76 0.77 0.77
1.27 1.28 1.24 1.22 1.25 1.22 1.21 1.24 1.22 1.14 1.11 1.12 1.07 1.07 1.09 1.08 1.09 1.08 1.06 1.05 1.02 1.00 0.95 0.89 0.85 0.87 0.87 0.86 0.87 0.85 0.85 0.86 0.83 0.80 0.77 0.73 0.71 0.76 0.73 0.72 0.74 0.75 0.74 0.71 0.74 0.84 0.95 0.91 0.95 0.98 0.98 0.96 0.93 0.92 0.92 0.88 0.85 0.87 0.83 0.80 0.73 0.63 0.56 0.57 0.58 0.56 0.54 0.53 0.57 0.58 0.61 0.62 0.63 0.64 0.64 0.70 0.72 0.72 0.71 0.70 0.72 0.71 0.73 0.76 0.76
1.23 1.25 1.25 1.28 1.27 1.28 1.22 1.19 1.12 1.12 1.12 1.11 1.06 1.08 1.08 1.07 1.09 1.08 1.06 1.03 0.99 0.90 0.88 0.90 0.87 0.87 0.86 0.86 0.86 0.85 0.82 0.81 0.79 0.77 0.76 0.73 0.71 0.75 0.75 0.71 0.73 0.75 0.75 0.72 0.74 0.83 0.95 0.93 0.95 0.98 0.97 0.93 0.89 0.86 0.82 0.84 0.82 0.83 0.79 0.74 0.69 0.67 0.61 0.58 0.58 0.62 0.61 0.58 0.59 0.59 0.61 0.63 0.65 0.69 0.68 0.65 0.69 0.71 0.69 0.67 0.68 0.70 0.72 0.75 0.75
1.19 1.24 1.28 1.24 1.22 1.30 1.17 1.13 1.11 1.10 1.09 1.03 0.99 1.03 1.06 1.06 1.08 1.07 1.05 0.96 0.88 0.87 0.88 0.88 0.89 0.86 0.87 0.85 0.82 0.81 0.77 0.75 0.72 0.71 0.71 0.69 0.69 0.73 0.76 0.73 0.72 0.74 0.75 0.76 0.77 0.84 0.95 0.97 0.97 0.99 0.95 0.90 0.84 0.84 0.79 0.76 0.74 0.73 0.72 0.72 0.71 0.72 0.71 0.67 0.64 0.65 0.65 0.66 0.63 0.59 0.61 0.62 0.64 0.66 0.68 0.66 0.64 0.63 0.62 0.64 0.67 0.70 0.72 0.75 0.74
1.18 1.15 1.17 1.26 1.22 1.29 1.17 1.13 1.12 1.08 1.02 0.98 1.00 1.02 1.01 1.02 1.01 0.99 0.95 0.89 0.90 0.90 0.90 0.89 0.91 0.91 0.90 0.88 0.84 0.81 0.77 0.71 0.68 0.63 0.63 0.65 0.65 0.67 0.72 0.73 0.70 0.72 0.74 0.75 0.77 0.79 0.90 0.99 0.98 0.99 0.96 0.93 0.89 0.83 0.75 0.72 0.72 0.74 0.74 0.75 0.74 0.73 0.74 0.72 0.70 0.68 0.68 0.68 0.70 0.68 0.66 0.67 0.65 0.61 0.63 0.64 0.64 0.64 0.62 0.63 0.64 0.69 0.74 0.75 0.73
1.16 1.18 1.14 1.21 1.25 1.25 1.19 1.16 1.13 1.09 1.04 1.01 1.01 1.00 0.99 0.97 0.92 0.87 0.85 0.85 0.86 0.88 0.91 0.90 0.90 0.91 0.87 0.89 0.88 0.84 0.78 0.70 0.69 0.66 0.65 0.67 0.64 0.64 0.69 0.72 0.71 0.69 0.70 0.73 0.76 0.77 0.79 0.91 0.97 0.96 0.95 0.93 0.86 0.82 0.75 0.73 0.75 0.75 0.77 0.80 0.80 0.75 0.73 0.72 0.71 0.71 0.70 0.71 0.71 0.72 0.71 0.65 0.63 0.65 0.65 0.63 0.63 0.64 0.66 0.66 0.64 0.67 0.71 0.77 0.77
1.17 1.19 1.18 1.19 1.20 1.19 1.17 1.19 1.18 1.15 1.09 1.05 1.05 1.03 1.00 0.95 0.89 0.87 0.85 0.83 0.83 0.83 0.86 0.88 0.88 0.89 0.89 0.89 0.86 0.84 0.81 0.79 0.80 0.76 0.69 0.63 0.62 0.60 0.62 0.68 0.72 0.71 0.68 0.68 0.72 0.73 0.75 0.77 0.85 0.92 0.94 0.87 0.82 0.83 0.83 0.81 0.77 0.73 0.76 0.77 0.76 0.75 0.73 0.73 0.74 0.73 0.71 0.69 0.70 0.71 0.69 0.67 0.65 0.65 0.64 0.62 0.61 0.63 0.69 0.70 0.69 0.72 0.74 0.75 0.78
1.15 1.15 1.14 1.13 1.14 1.15 1.12 1.14 1.17 1.17 1.15 1.13 1.10 1.08 1.03 0.98 0.94 0.93 0.93 0.92 0.92 0.95 0.96 0.96 0.95 0.94 0.93 0.92 0.91 0.87 0.85 0.73 0.64 0.62 0.62 0.69 0.65 0.64 0.63 0.65 0.67 0.70 0.68 0.63 0.65 0.71 0.74 0.75 0.72 0.70 0.70 0.71 0.70 0.71 0.72 0.71 0.72 0.79 0.79 0.74 0.69 0.68 0.67 0.67 0.66 0.66 0.66 0.65 0.66 0.67 0.66 0.67 0.69 0.69 0.66 0.66 0.67 0.69 0.69 0.70 0.69 0.73 0.75 0.74 0.76
1.12 1.12 1.11 1.13 1.15 1.16 1.14 1.16 1.16 1.14 1.17 1.15 1.13 1.08 1.03 1.00 0.97 0.95 0.95 0.98 1.01 1.02 1.03 1.03 1.02 1.00 0.98 0.98 0.96 0.87 0.76 0.70 0.64 0.61 0.62 0.59 0.62 0.68 0.67 0.66 0.64 0.67 0.67 0.63 0.61 0.66 0.72 0.75 0.72 0.67 0.67 0.67 0.67 0.66 0.66 0.66 0.65 0.64 0.66 0.67 0.70 0.70 0.67 0.66 0.64 0.66 0.65 0.63 0.66 0.66 0.64 0.65 0.68 0.71 0.71 0.72 0.73 0.70 0.69 0.71 0.72 0.74 0.71 0.69 0.64
1.08 1.08 1.11 1.12 1.15 1.15 1.15 1.16 1.16 1.17 1.17 1.18 1.16 1.13 1.10 1.08 1.07 1.08 1.07 1.06 1.07 1.07 1.06 1.06 1.06 1.06 1.02 0.98 0.96 0.91 0.81 0.74 0.69 0.66 0.63 0.60 0.59 0.64 0.66 0.67 0.64 0.64 0.64 0.65 0.65 0.66 0.70 0.74 0.76 0.76 0.76 0.76 0.74 0.69 0.67 0.66 0.65 0.63 0.62 0.61 0.61 0.61 0.61 0.62 0.63 0.63 0.64 0.61 0.61 0.64 0.65 0.65 0.67 0.70 0.71 0.73 0.74 0.77 0.78 0.77 0.77 0.76 0.72 0.71 0.69
1.05 1.03 1.06 1.10 1.13 1.14 1.15 1.14 1.14 1.14 1.14 1.15 1.15 1.14 1.11 1.11 1.12 1.11 1.11 1.11 1.10 1.08 1.06 1.07 1.05 1.03 0.98 0.94 0.95 0.89 0.82 0.78 0.75 0.71 0.66 0.63 0.61 0.60 0.67 0.69 0.66 0.66 0.69 0.71 0.73 0.72 0.71 0.72 0.74 0.76 0.77 0.72 0.72 0.75 0.74 0.67 0.64 0.62 0.61 0.60 0.59 0.59 0.58 0.59 0.59 0.58 0.65 0.65 0.64 0.64 0.66 0.68 0.68 0.70 0.74 0.77 0.79 0.75 0.78 0.78 0.78 0.79 0.77 0.75 0.75
1.07 1.03 1.02 1.04 1.08 1.11 1.12 1.11 1.09 1.09 1.11 1.14 1.13 1.12 1.12 1.10 1.11 1.11 1.10 1.09 1.06 1.05 1.05 1.04 1.02 1.00 0.97 0.93 0.87 0.84 0.81 0.78 0.76 0.76 0.72 0.68 0.65 0.62 0.67 0.67 0.67 0.70 0.73 0.76 0.78 0.77 0.79 0.78 0.77 0.76 0.77 0.74 0.71 0.73 0.75 0.76 0.73 0.65 0.63 0.64 0.64 0.65 0.63 0.63 0.63 0.64 0.65 0.66 0.67 0.67 0.72 0.74 0.72 0.73 0.78 0.83 0.82 0.77 0.77 0.78 0.83 0.83 0.83 0.83 0.87
1.07 1.04 1.04 1.07 1.08 1.06 1.05 1.05 1.04 1.05 1.06 1.08 1.07 1.06 1.06 1.06 1.05 1.04 1.03 1.02 1.01 1.00 1.02 1.02 1.00 0.97 0.91 0.86 0.81 0.77 0.74 0.73 0.72 0.72 0.74 0.75 0.73 0.70 0.72 0.69 0.68 0.69 0.71 0.74 0.74 0.77 0.77 0.77 0.76 0.79 0.83 0.82 0.81 0.80 0.78 0.77 0.77 0.74 0.72 0.72 0.73 0.75 0.77 0.75 0.73 0.73 0.74 0.74 0.74 0.75 0.78 0.83 0.84 0.88 0.92 0.90 0.86 0.85 0.85 0.85 0.86 0.87 0.89 0.91 0.89
1.04 1.03 1.02 1.03 1.04 1.06 1.06 1.05 1.03 1.03 1.01 1.01 1.01 1.01 1.02 1.02 0.98 0.97 0.96 0.97 0.99 1.00 1.01 1.00 0.96 0.92 0.91 0.88 0.84 0.79 0.75 0.72 0.70 0.70 0.71 0.74 0.77 0.79 0.80 0.76 0.75 0.75 0.76 0.78 0.78 0.79 0.80 0.78 0.77 0.75 0.75 0.74 0.76 0.71 0.69 0.71 0.72 0.71 0.70 0.72 0.74 0.78 0.80 0.84 0.86 0.84 0.83 0.83 0.83 0.83 0.85 0.92 0.91 0.92 0.93 0.93 0.92 0.93 0.93 0.94 0.95 0.91 0.87 0.81 0.74
0.99 0.98 0.98 0.98 0.97 0.98 1.00 1.00 0.99 0.98 0.97 0.96 0.96 0.95 0.94 0.94 0.94 0.93 0.91 0.93 0.94 0.93 0.95 0.95 0.93 0.89 0.87 0.86 0.83 0.81 0.80 0.78 0.75 0.73 0.71 0.72 0.76 0.77 0.79 0.82 0.83 0.83 0.83 0.85 0.84 0.84 0.84 0.84 0.82 0.82 0.81 0.80 0.84 0.77 0.74 0.71 0.71 0.71 0.71 0.71 0.74 0.76 0.77 0.84 0.83 0.82 0.81 0.82 0.83 0.85 0.87 0.88 0.88 0.89 0.90 0.92 0.92 0.94 0.91 0.85 0.78 0.79 0.74 0.68 0.68
0.92 0.91 0.92 0.94 0.94 0.95 0.96 0.96 0.94 0.93 0.91 0.90 0.90 0.90 0.91 0.92 0.92 0.94 0.93 0.92 0.89 0.90 0.92 0.92 0.91 0.87 0.84 0.84 0.86 0.83 0.82 0.81 0.80 0.78 0.77 0.77 0.79 0.80 0.78 0.78 0.81 0.83 0.86 0.89 0.89 0.89 0.89 0.84 0.84 0.85 0.90 0.90 0.87 0.83 0.81 0.79 0.76 0.76 0.75 0.74 0.74 0.75 0.77 0.84 0.83 0.83 0.83 0.84 0.84 0.85 0.85 0.88 0.90 0.90 0.90 0.88 0.86 0.85 0.80 0.73 0.78 0.79 0.72 0.69 0.65
0.85 0.85 0.86 0.87 0.89 0.90 0.89 0.88 0.88 0.89 0.90 0.88 0.89 0.89 0.91 0.91 0.92 0.92 0.92 0.93 0.92 0.91 0.91 0.88 0.87 0.88 0.87 0.85 0.84 0.86 0.84 0.83 0.82 0.82 0.82 0.82 0.83 0.87 0.84 0.82 0.81 0.80 0.80 0.81 0.85 0.86 0.91 0.89 0.88 0.87 0.85 0.84 0.84 0.83 0.83 0.82 0.81 0.81 0.82 0.81 0.79 0.78 0.83 0.89 0.91 0.86 0.84 0.84 0.85 0.87 0.88 0.89 0.90 0.91 0.91 0.89 0.85 0.83 0.82 0.81 0.82 0.78 0.71 0.70 0.69
0.81 0.81 0.81 0.81 0.81 0.82 0.82 0.82 0.82 0.81 0.80 0.81 0.82 0.81 0.82 0.82 0.83 0.84 0.84 0.83 0.83 0.82 0.83 0.83 0.81 0.83 0.85 0.86 0.84 0.84 0.84 0.82 0.80 0.80 0.80 0.79 0.80 0.83 0.85 0.82 0.81 0.80 0.82 0.82 0.81 0.86 0.90 0.93 0.93 0.91 0.91 0.92 0.91 0.90 0.89 0.88 0.85 0.87 0.88 0.85 0.83 0.83 0.93 0.96 0.98 0.98 0.92 0.89 0.90 0.92 0.91 0.96 0.96 0.95 0.95 0.91 0.87 0.86 0.85 0.84 0.83 0.79 0.73 0.70 0.67
0.74 0.74 0.75 0.74 0.73 0.73 0.73 0.73 0.72 0.72 0.72 0.70 0.71 0.71 0.71 0.71 0.70 0.69 0.68 0.69 0.69 0.68 0.67 0.68 0.68 0.69 0.71 0.73 0.73 0.71 0.71 0.72 0.69 0.67 0.67 0.67 0.66 0.66 0.69 0.67 0.67 0.69 0.71 0.72 0.73 0.74 0.76 0.80 0.87 0.83 0.83 0.82 0.82 0.87 0.91 0.94 0.95 0.95 0.96 0.93 0.95 0.98 1.00 0.97 0.97 0.98 0.98 0.97 0.96 0.96 0.95 0.95 0.93 0.93 0.91 0.90 0.87 0.85 0.84 0.83 0.83 0.82 0.76 0.70 0.68
0.68 0.68 0.67 0.67 0.67 0.66 0.66 0.66 0.66 0.65 0.65 0.66 0.65 0.65 0.66 0.66 0.66 0.67 0.66 0.67 0.66 0.64 0.64 0.64 0.64 0.64 0.65 0.65 0.65 0.65 0.63 0.59 0.64 0.61 0.60 0.60 0.60 0.59 0.60 0.60 0.57 0.57 0.57 0.59 0.60 0.62 0.65 0.69 0.72 0.72 0.69 0.67 0.68 0.70 0.72 0.76 0.82 0.84 0.87 0.90 0.93 0.93 0.93 0.94 0.96 0.96 0.95 0.93 0.93 0.92 0.91 0.91 0.88 0.86 0.85 0.83 0.82 0.81 0.82 0.82 0.82 0.82 0.82 0.81 0.75
0.68 0.68 0.67 0.66 0.65 0.65 0.65 0.65 0.65 0.66 0.65 0.65 0.64 0.63 0.63 0.62 0.62 0.62 0.62 0.62 0.61 0.61 0.61 0.61 0.61 0.60 0.60 0.60 0.59 0.59 0.59 0.59 0.54 0.56 0.54 0.55 0.55 0.55 0.55 0.56 0.56 0.58 0.57 0.56 0.56 0.57 0.61 0.62 0.65 0.63 0.59 0.58 0.59 0.61 0.64 0.66 0.68 0.71 0.76 0.82 0.87 0.89 0.91 0.91 0.91 0.90 0.89 0.88 0.88 0.87 0.88 0.86 0.83 0.80 0.81 0.81 0.82 0.83 0.83 0.83 0.82 0.81 0.78 0.77 0.77
0.73 0.71 0.70 0.69 0.68 0.67 0.66 0.66 0.66 0.66 0.66 0.66 0.66 0.65 0.64 0.63 0.62 0.61 0.61 0.61 0.59 0.58 0.57 0.57 0.57 0.56 0.56 0.57 0.57 0.57 0.58 0.59 0.56 0.53 0.52 0.51 0.51 0.51 0.50 0.49 0.48 0.48 0.49 0.49 0.51 0.53 0.55 0.57 0.54 0.50 0.49 0.50 0.50 0.51 0.52 0.55 0.58 0.61 0.64 0.68 0.72 0.77 0.84 0.88 0.89 0.89 0.89 0.86 0.83 0.84 0.83 0.84 0.82 0.80 0.81 0.83 0.82 0.81 0.82 0.81 0.78 0.76 0.72 0.71 0.71
0.75 0.73 0.71 0.70 0.70 0.70 0.70 0.68 0.67 0.67 0.68 0.68 0.66 0.65 0.64 0.64 0.61 0.60 0.60 0.58 0.57 0.56 0.54 0.54 0.53 0.53 0.53 0.53 0.53 0.54 0.55 0.55 0.57 0.54 0.52 0.52 0.52 0.51 0.50 0.49 0.48 0.47 0.46 0.48 0.51 0.51 0.50 0.48 0.48 0.48 0.47 0.47 0.47 0.47 0.46 0.48 0.50 0.50 0.51 0.53 0.57 0.60 0.64 0.67 0.71 0.76 0.76 0.78 0.79 0.80 0.81 0.79 0.79 0.82 0.83 0.81 0.80 0.79 0.75 0.73 0.72 0.70 0.69 0.68 0.67
0.68 0.67 0.67 0.68 0.69 0.69 0.70 0.69 0.69 0.69 0.70 0.69 0.67 0.65 0.64 0.62 0.61 0.60 0.59 0.56 0.55 0.53 0.51 0.51 0.51 0.50 0.50 0.50 0.50 0.50 0.51 0.52 0.52 0.53 0.52 0.51 0.49 0.48 0.47 0.46 0.46 0.45 0.43 0.42 0.42 0.42 0.43 0.42 0.41 0.41 0.41 0.41 0.41 0.41 0.41 0.42 0.44 0.44 0.45 0.47 0.47 0.47 0.49 0.51 0.55 0.59 0.63 0.67 0.70 0.73 0.77 0.81 0.81 0.79 0.81 0.81 0.76 0.70 0.68 0.66 0.64 0.63 0.63 0.62 0.61
0.64 0.64 0.63 0.63 0.63 0.62 0.60 0.61 0.62 0.62 0.62 0.62 0.62 0.60 0.59 0.59 0.57 0.54 0.53 0.52 0.51 0.49 0.47 0.46 0.45 0.44 0.43 0.43 0.43 0.43 0.44 0.45 0.45 0.44 0.44 0.43 0.42 0.42 0.43 0.42 0.41 0.40 0.41 0.43 0.42 0.42 0.41 0.39 0.37 0.36 0.36 0.36 0.36 0.37 0.37 0.37 0.37 0.38 0.42 0.44 0.44 0.44 0.44 0.44 0.45 0.46 0.49 0.53 0.57 0.62 0.72 0.73 0.76 0.75 0.73 0.72 0.67 0.65 0.66 0.64 0.60 0.58 0.58 0.58 0.57
0.60 0.60 0.60 0.60 0.59 0.58 0.57 0.56 0.56 0.56 0.55 0.55 0.53 0.53 0.52 0.51 0.50 0.47 0.46 0.45 0.44 0.44 0.43 0.43 0.42 0.41 0.40 0.41 0.41 0.41 0.41 0.43 0.42 0.39 0.40 0.39 0.39 0.39 0.39 0.40 0.40 0.40 0.39 0.40 0.38 0.38 0.38 0.38 0.38 0.39 0.40 0.40 0.40 0.40 0.41 0.42 0.42 0.42 0.43 0.43 0.43 0.45 0.45 0.46 0.47 0.48 0.49 0.52 0.53 0.57 0.58 0.60 0.59 0.59 0.60 0.59 0.60 0.62 0.63 0.61 0.57 0.55 0.55 0.54 0.51
0.58 0.57 0.57 0.57 0.56 0.55 0.55 0.54 0.53 0.52 0.51 0.51 0.50 0.48 0.46 0.46 0.46 0.47 0.47 0.45 0.43 0.41 0.41 0.43 0.42 0.41 0.41 0.40 0.39 0.38 0.39 0.39 0.39 0.41 0.40 0.39 0.37 0.36 0.36 0.37 0.38 0.39 0.39 0.39 0.39 0.38 0.39 0.38 0.37 0.37 0.38 0.37 0.36 0.35 0.36 0.37 0.37 0.38 0.39 0.40 0.42 0.43 0.44 0.43 0.42 0.44 0.48 0.51 0.51 0.51 0.52 0.54 0.55 0.57 0.59 0.60 0.61 0.62 0.62 0.62 0.59 0.55 0.54 0.52 0.48
0.55 0.55 0.55 0.55 0.54 0.54 0.53 0.52 0.52 0.51 0.50 0.49 0.49 0.49 0.49 0.48 0.47 0.46 0.45 0.46 0.45 0.45 0.43 0.41 0.41 0.41 0.41 0.42 0.42 0.37 0.37 0.39 0.41 0.40 0.39 0.38 0.37 0.37 0.37 0.37 0.37 0.38 0.38 0.39 0.38 0.34 0.34 0.35 0.36 0.36 0.36 0.35 0.34 0.34 0.34 0.35 0.34 0.35 0.37 0.39 0.40 0.41 0.42 0.43 0.44 0.45 0.48 0.50 0.51 0.50 0.51 0.53 0.55 0.57 0.58 0.58 0.59 0.59 0.59 0.56 0.53 0.52 0.49 0.46 0.43
0.52 0.51 0.51 0.51 0.51 0.51 0.51 0.51 0.51 0.51 0.50 0.49 0.48 0.47 0.48 0.47 0.47 0.46 0.44 0.44 0.43 0.43 0.42 0.42 0.42 0.41 0.40 0.39 0.41 0.41 0.40 0.39 0.38 0.38 0.38 0.37 0.36 0.36 0.36 0.36 0.36 0.37 0.37 0.36 0.33 0.33 0.32 0.31 0.31 0.32 0.33 0.34 0.34 0.34 0.35 0.35 0.35 0.35 0.36 0.39 0.42 0.42 0.43 0.44 0.46 0.48 0.49 0.50 0.52 0.51 0.52 0.53 0.55 0.56 0.55 0.54 0.54 0.54 0.54 0.53 0.50 0.48 0.45 0.43 0.43
0.48 0.48 0.48 0.48 0.48 0.48 0.48 0.48 0.48 0.48 0.47 0.47 0.45 0.44 0.43 0.43 0.43 0.44 0.42 0.41 0.41 0.41 0.40 0.41 0.41 0.40 0.40 0.39 0.37 0.38 0.38 0.37 0.36 0.36 0.36 0.35 0.34 0.34 0.34 0.35 0.36 0.36 0.36 0.36 0.32 0.31 0.31 0.31 0.32 0.32 0.34 0.34 0.34 0.36 0.37 0.37 0.38 0.38 0.39 0.39 0.40 0.43 0.43 0.44 0.48 0.50 0.51 0.52 0.52 0.52 0.53 0.55 0.55 0.53 0.51 0.50 0.50 0.49 0.50 0.48 0.46 0.44 0.43 0.46 0.47
0.47 0.47 0.47 0.46 0.47 0.46 0.45 0.45 0.44 0.44 0.43 0.43 0.43 0.42 0.40 0.40 0.39 0.39 0.40 0.41 0.41 0.40 0.39 0.39 0.38 0.38 0.37 0.37 0.37 0.36 0.35 0.35 0.35 0.35 0.34 0.34 0.34 0.33 0.34 0.34 0.35 0.36 0.36 0.34 0.32 0.32 0.34 0.34 0.34 0.34 0.35 0.35 0.36 0.36 0.37 0.38 0.38 0.39 0.40 0.40 0.41 0.44 0.46 0.48 0.49 0.51 0.51 0.52 0.53 0.52 0.52 0.52 0.52 0.51 0.51 0.51 0.49 0.47 0.47 0.47 0.50 0.53 0.55 0.54 0.53
0.46 0.46 0.46 0.46 0.45 0.45 0.45 0.44 0.44 0.43 0.43 0.43 0.42 0.41 0.39 0.39 0.38 0.38 0.37 0.37 0.38 0.39 0.39 0.38 0.37 0.36 0.36 0.36 0.36 0.36 0.36 0.35 0.34 0.34 0.34 0.34 0.34 0.34 0.33 0.34 0.35 0.36 0.36 0.35 0.35 0.34 0.35 0.34 0.35 0.35 0.36 0.37 0.38 0.39 0.38 0.38 0.39 0.39 0.40 0.41 0.43 0.46 0.47 0.49 0.49 0.49 0.48 0.48 0.48 0.49 0.50 0.52 0.52 0.51 0.50 0.49 0.47 0.48 0.50 0.53 0.55 0.54 0.52 0.50 0.47
0.45 0.43 0.43 0.45 0.44 0.43 0.43 0.43 0.42 0.41 0.40 0.39 0.38 0.37 0.36 0.36 0.35 0.35 0.33 0.32 0.33 0.33 0.34 0.35 0.36 0.36 0.35 0.35 0.35 0.36 0.35 0.35 0.33 0.33 0.34 0.34 0.34 0.35 0.35 0.35 0.33 0.35 0.37 0.38 0.37 0.36 0.35 0.35 0.36 0.36 0.38 0.38 0.39 0.40 0.41 0.42 0.42 0.41 0.41 0.41 0.42 0.44 0.45 0.45 0.46 0.47 0.46 0.45 0.45 0.45 0.47 0.48 0.49 0.48 0.48 0.47 0.47 0.46 0.48 0.50 0.49 0.49 0.47 0.46 0.44
0.40 0.40 0.40 0.40 0.40 0.40 0.40 0.39 0.38 0.37 0.36 0.36 0.35 0.34 0.34 0.33 0.33 0.34 0.34 0.34 0.34 0.33 0.33 0.34 0.36 0.35 0.36 0.35 0.35 0.35 0.34 0.34 0.33 0.33 0.34 0.34 0.35 0.36 0.32 0.31 0.32 0.34 0.35 0.37 0.38 0.38 0.38 0.39 0.38 0.39 0.40 0.40 0.42 0.42 0.43 0.44 0.45 0.46 0.46 0.45 0.43 0.43 0.44 0.45 0.46 0.46 0.47 0.48 0.48 0.48 0.47 0.46 0.46 0.46 0.46 0.48 0.49 0.48 0.48 0.47 0.48 0.48 0.47 0.47 0.48
0.37 0.37 0.37 0.37 0.37 0.37 0.38 0.38 0.36 0.35 0.34 0.35 0.34 0.34 0.34 0.33 0.33 0.34 0.34 0.34 0.33 0.34 0.35 0.34 0.36 0.36 0.36 0.35 0.35 0.34 0.34 0.33 0.33 0.34 0.34 0.35 0.37 0.37 0.36 0.35 0.35 0.35 0.36 0.38 0.39 0.39 0.39 0.40 0.41 0.40 0.41 0.40 0.42 0.43 0.44 0.44 0.46 0.47 0.47 0.47 0.46 0.44 0.44 0.45 0.46 0.46 0.45 0.44 0.44 0.43 0.43 0.43 0.43 0.43 0.44 0.45 0.47 0.49 0.51 0.51 0.51 0.51 0.50 0.50 0.49
0.36 0.36 0.37 0.38 0.37 0.38 0.37 0.37 0.36 0.35 0.36 0.35 0.36 0.35 0.34 0.33 0.33 0.33 0.33 0.32 0.32 0.33 0.34 0.34 0.33 0.32 0.29 0.30 0.33 0.33 0.32 0.33 0.34 0.33 0.33 0.34 0.35 0.35 0.35 0.35 0.37 0.36 0.37 0.39 0.41 0.41 0.41 0.42 0.42 0.41 0.41 0.41 0.41 0.42 0.43 0.44 0.46 0.47 0.47 0.48 0.48 0.48 0.48 0.47 0.47 0.46 0.44 0.43 0.44 0.44 0.44 0.44 0.45 0.46 0.48 0.49 0.51 0.52 0.52 0.50 0.49 0.48 0.47 0.46 0.45
0.37 0.35 0.34 0.35 0.36 0.38 0.37 0.36 0.37 0.37 0.36 0.35 0.35 0.34 0.32 0.32 0.32 0.33 0.33 0.33 0.33 0.32 0.33 0.32 0.31 0.30 0.29 0.31 0.31 0.33 0.33 0.31 0.30 0.30 0.30 0.32 0.33 0.35 0.35 0.36 0.36 0.37 0.38 0.40 0.41 0.41 0.42 0.41 0.42 0.42 0.41 0.41 0.41 0.41 0.42 0.43 0.45 0.46 0.48 0.49 0.50 0.50 0.50 0.50 0.49 0.48 0.49 0.51 0.51 0.51 0.49 0.48 0.49 0.50 0.52 0.53 0.50 0.50 0.50 0.48 0.48 0.47 0.45 0.44 0.44
0.34 0.36 0.35 0.34 0.36 0.35 0.35 0.35 0.36 0.36 0.35 0.35 0.34 0.34 0.33 0.31 0.32 0.32 0.32 0.32 0.32 0.32 0.32 0.31 0.30 0.30 0.31 0.31 0.31 0.32 0.31 0.31 0.31 0.31 0.32 0.32 0.33 0.34 0.36 0.36 0.36 0.37 0.37 0.39 0.40 0.41 0.41 0.41 0.42 0.41 0.41 0.41 0.40 0.41 0.43 0.45 0.46 0.47 0.48 0.49 0.49 0.49 0.50 0.50 0.49 0.48 0.48 0.52 0.53 0.53 0.53 0.53 0.53 0.53 0.52 0.51 0.51 0.50 0.48 0.46 0.45 0.44 0.44 0.43 0.43
0.36 0.36 0.34 0.34 0.35 0.35 0.36 0.35 0.35 0.36 0.36 0.36 0.35 0.35 0.33 0.32 0.33 0.33 0.33 0.32 0.32 0.32 0.32 0.32 0.31 0.31 0.32 0.33 0.33 0.34 0.33 0.32 0.32 0.33 0.33 0.33 0.34 0.35 0.36 0.36 0.37 0.37 0.39 0.39 0.40 0.41 0.41 0.41 0.41 0.41 0.41 0.40 0.41 0.42 0.43 0.45 0.46 0.47 0.48 0.49 0.49 0.48 0.47 0.46 0.47 0.47 0.49 0.51 0.51 0.50 0.51 0.51 0.50 0.49 0.47 0.46 0.46 0.45 0.43 0.43 0.42 0.42 0.41 0.41 0.40
0.35 0.34 0.34 0.35 0.34 0.34 0.33 0.35 0.36 0.36 0.37 0.36 0.36 0.35 0.35 0.35 0.35 0.34 0.33 0.32 0.32 0.32 0.31 0.32 0.32 0.33 0.34 0.35 0.34 0.34 0.33 0.32 0.34 0.34 0.35 0.35 0.35 0.36 0.36 0.37 0.38 0.38 0.39 0.39 0.40 0.40 0.40 0.40 0.40 0.41 0.41 0.41 0.41 0.42 0.43 0.45 0.47 0.47 0.48 0.48 0.48 0.48 0.47 0.48 0.49 0.50 0.50 0.51 0.51 0.49 0.47 0.46 0.45 0.44 0.44 0.44 0.43 0.42 0.41 0.40 0.40 0.40 0.40 0.39 0.38
0.35 0.35 0.35 0.34 0.34 0.32 0.32 0.33 0.36 0.37 0.38 0.37 0.36 0.36 0.36 0.36 0.36 0.35 0.33 0.33 0.33 0.32 0.32 0.31 0.33 0.34 0.35 0.35 0.35 0.34 0.34 0.33 0.34 0.35 0.35 0.36 0.36 0.36 0.37 0.37 0.38 0.39 0.40 0.41 0.42 0.42 0.41 0.40 0.41 0.42 0.42 0.42 0.43 0.43 0.44 0.45 0.46 0.47 0.48 0.48 0.49 0.49 0.49 0.49 0.49 0.50 0.49 0.48 0.47 0.48 0.48 0.47 0.45 0.44 0.43 0.42 0.42 0.41 0.41 0.40 0.39 0.39 0.39 0.38 0.37
0.36 0.34 0.34 0.33 0.32 0.33 0.32 0.33 0.34 0.36 0.36 0.35 0.35 0.34 0.35 0.36 0.36 0.35 0.34 0.34 0.34 0.33 0.33 0.33 0.34 0.35 0.35 0.36 0.36 0.35 0.35 0.35 0.35 0.36 0.36 0.36 0.37 0.37 0.38 0.39 0.39 0.40 0.41 0.42 0.42 0.43 0.42 0.42 0.43 0.43 0.44 0.45 0.45 0.46 0.46 0.47 0.46 0.46 0.46 0.46 0.47 0.47 0.48 0.48 0.48 0.48 0.48 0.48 0.48 0.46 0.45 0.44 0.43 0.42 0.42 0.42 0.42 0.40 0.39 0.38 0.38 0.37 0.37 0.37 0.36
0.36 0.35 0.34 0.33 0.32 0.32 0.32 0.34 0.35 0.35 0.35 0.34 0.34 0.34 0.35 0.36 0.35 0.34 0.34 0.34 0.34 0.34 0.34 0.34 0.35 0.35 0.35 0.35 0.35 0.35 0.35 0.36 0.36 0.36 0.37 0.37 0.37 0.38 0.39 0.40 0.41 0.41 0.41 0.42 0.43 0.44 0.44 0.44 0.44 0.44 0.44 0.46 0.47 0.47 0.47 0.47 0.48 0.48 0.48 0.47 0.46 0.46 0.47 0.47 0.48 0.49 0.49 0.48 0.46 0.44 0.43 0.42 0.41 0.41 0.40 0.39 0.38 0.38 0.38 0.37 0.37 0.36 0.36 0.35 0.34
0.36 0.35 0.33 0.33 0.31 0.31 0.32 0.34 0.35 0.35 0.35 0.34 0.33 0.33 0.34 0.35 0.35 0.34 0.34 0.34 0.33 0.33 0.33 0.34 0.35 0.35 0.35 0.35 0.34 0.34 0.34 0.34 0.35 0.36 0.37 0.38 0.39 0.39 0.40 0.40 0.41 0.42 0.42 0.42 0.43 0.44 0.45 0.45 0.45 0.45 0.45 0.46 0.47 0.49 0.50 0.50 0.50 0.50 0.50 0.50 0.49 0.48 0.49 0.50 0.50 0.49 0.48 0.47 0.45 0.44 0.43 0.41 0.40 0.39 0.37 0.38 0.37 0.37 0.36 0.36 0.35 0.35 0.34 0.34 0.34
0.38 0.35 0.33 0.33 0.31 0.30 0.31 0.33 0.34 0.33 0.33 0.33 0.33 0.33 0.33 0.34 0.34 0.34 0.34 0.34 0.34 0.34 0.34 0.34 0.34 0.34 0.34 0.33 0.33 0.32 0.33 0.33 0.33 0.34 0.35 0.35 0.35 0.36 0.38 0.39 0.40 0.40 0.41 0.43 0.43 0.44 0.45 0.45 0.45 0.46 0.46 0.46 0.47 0.48 0.49 0.49 0.50 0.51 0.51 0.51 0.50 0.49 0.49 0.49 0.48 0.47 0.47 0.46 0.45 0.44 0.42 0.39 0.37 0.35 0.35 0.36 0.36 0.35 0.35 0.35 0.34 0.33 0.34 0.33 0.33
0.39 0.36 0.34 0.33 0.32 0.32 0.31 0.31 0.31 0.31 0.32 0.32 0.33 0.32 0.32 0.34 0.34 0.34 0.34 0.34 0.34 0.34 0.33 0.34 0.34 0.34 0.34 0.33 0.33 0.32 0.33 0.33 0.34 0.34 0.34 0.34 0.34 0.34 0.35 0.36 0.36 0.37 0.38 0.39 0.41 0.42 0.43 0.44 0.44 0.45 0.45 0.45 0.45 0.47 0.48 0.49 0.50 0.50 0.50 0.50 0.50 0.49 0.47 0.46 0.44 0.44 0.43 0.43 0.43 0.42 0.39 0.37 0.36 0.35 0.35 0.35 0.35 0.35 0.34 0.33 0.33 0.33 0.33 0.33 0.33
0.40 0.36 0.34 0.33 0.32 0.31 0.30 0.29 0.29 0.29 0.31 0.32 0.32 0.32 0.32 0.33 0.33 0.33 0.33 0.33 0.33 0.33 0.34 0.33 0.34 0.34 0.33 0.33 0.33 0.32 0.32 0.32 0.32 0.33 0.33 0.34 0.34 0.35 0.35 0.36 0.36 0.37 0.37 0.37 0.38 0.39 0.39 0.40 0.40 0.41 0.41 0.41 0.41 0.43 0.44 0.45 0.45 0.46 0.45 0.45 0.45 0.44 0.42 0.41 0.40 0.40 0.41 0.42 0.41 0.40 0.38 0.36 0.34 0.34 0.35 0.36 0.35 0.34 0.33 0.33 0.34 0.33 0.32 0.32 0.32
0.40 0.37 0.34 0.32 0.31 0.32 0.29 0.30 0.29 0.29 0.28 0.31 0.32 0.31 0.31 0.32 0.32 0.33 0.33 0.33 0.33 0.33 0.33 0.33 0.33 0.32 0.32 0.32 0.32 0.31 0.31 0.30 0.30 0.30 0.30 0.31 0.32 0.33 0.34 0.35 0.35 0.36 0.37 0.38 0.38 0.39 0.39 0.39 0.38 0.38 0.38 0.37 0.36 0.36 0.37 0.38 0.39 0.39 0.39 0.39 0.38 0.38 0.37 0.36 0.36 0.35 0.36 0.36 0.37 0.36 0.36 0.35 0.35 0.36 0.37 0.37 0.36 0.35 0.33 0.33 0.33 0.33 0.32 0.31 0.29
0.39 0.36 0.34 0.34 0.32 0.31 0.32 0.30 0.29 0.28 0.28 0.28 0.30 0.30 0.30 0.31 0.32 0.32 0.33 0.33 0.32 0.32 0.33 0.33 0.32 0.31 0.31 0.31 0.31 0.30 0.30 0.29 0.29 0.29 0.29 0.29 0.29 0.30 0.31 0.32 0.33 0.34 0.36 0.36 0.37 0.38 0.39 0.39 0.38 0.37 0.37 0.37 0.36 0.35 0.34 0.34 0.35 0.35 0.35 0.35 0.35 0.34 0.34 0.34 0.34 0.34 0.34 0.34 0.35 0.36 0.36 0.36 0.36 0.36 0.36 0.37 0.36 0.35 0.34 0.33 0.33 0.33 0.33 0.31 0.31
Wind_Speed
17 18 20 21 22 23 24 23 22 21 20 20 20 19 18 17 15 14 13 12 11 10 10 9 9 9 9 9 9 9 9 9 9 9 9 9 9 9 10 10 9 9 9 9 10 10 11 11 12 12 12 12 12 12 12 12 12 12 12 11 10 10 10 10 9 9 8 9 9 9 10 10 10 10 10 9 10 10 10 10 10 11 11 11 11
18 19 20 21 22 23 23 23 22 21 20 20 19 18 17 16 15 14 13 12 12 11 10 10 9 9 9 10 10 10 10 9 9 9 9 9 10 10 9 9 9 9 9 9 9 9 10 11 11 12 12 12 12 12 12 12 12 12 12 11 10 10 10 10 9 10 10 10 10 10 10 11 11 11 11 11 11 11 12 12 12 12 12 12 12
18 19 20 21 22 23 23 22 22 21 20 20 19 18 17 16 15 14 14 13 12 11 11 10 10 10 10 10 10 10 10 10 10 10 10 10 10 10 10 9 9 9 9 8 8 9 10 11 11 12 12 12 12 12 12 12 12 12 12 12 11 10 10 10 10 10 11 11 11 11 11 12 12 12 13 13 13 13 13 13 13 13 13 13 13
18 19 20 22 22 22 22 22 22 22 21 20 19 18 17 16 15 15 14 13 13 12 11 11 10 10 10 9 10 10 10 10 10 10 10 10 10 10 10 10 9 9 9 9 8 9 10 11 11 12 12 12 13 13 13 13 13 13 12 12 11 11 11 11 11 11 11 12 12 12 12 13 13 13 14 14 14 14 14 14 14 14 14 14 14
18 19 19 21 21 21 21 21 21 21 21 20 19 19 17 16 16 15 14 14 13 13 12 12 11 11 10 10 10 10 10 10 10 11 11 11 11 11 11 10 10 10 9 9 9 9 10 11 12 12 12 13 13 13 14 14 13 13 13 13 13 12 12 13 12 12 12 12 13 13 13 13 14 14 15 15 15 15 16 16 16 16 16 16 16
18 18 18 19 20 20 20 20 20 20 19 19 19 18 17 16 16 15 14 14 14 13 13 13 12 12 12 11 11 11 11 11 11 11 11 11 11 12 11 11 11 10 10 10 9 9 11 12 12 12 13 13 14 14 14 14 14 14 14 13 13 13 13 14 14 14 13 14 14 14 15 15 15 15 16 16 16 17 17 17 17 17 17 17 18
17 18 19 19 19 19 18 18 18 18 17 18 18 17 16 16 16 15 15 14 14 14 13 13 13 13 12 12 11 11 11 10 11 11 11 12 12 12 12 12 12 11 11 11 10 10 10 12 12 13 13 14 14 14 14 15 15 14 14 14 14 14 14 15 15 15 15 15 16 16 16 16 16 17 17 17 18 18 18 18 19 19 19 20 20
16 18 19 19 19 18 18 17 17 17 17 17 17 16 15 15 16 15 15 14 14 14 14 14 13 13 12 12 11 11 11 10 10 11 11 12 12 12 12 12 12 12 12 12 12 11 11 12 13 13 14 14 14 14 14 15 15 15 15 15 15 15 15 16 16 17 17 17 17 17 17 18 18 18 18 18 19 20 20 20 20 20 21 21 22
16 17 18 18 18 19 18 18 17 17 17 17 17 16 15 15 15 15 15 14 14 14 14 14 14 13 13 12 12 12 11 11 11 11 11 12 12 12 13 13 13 13 13 13 13 13 12 13 13 14 14 14 14 14 14 14 15 15 15 16 16 16 16 16 17 17 17 18 18 19 19 19 19 19 19 20 21 21 21 21 22 22 22 22 23
16 17 17 18 18 19 19 18 18 17 17 17 17 16 16 16 15 14 14 14 13 13 13 14 14 14 14 13 13 13 12 12 12 12 12 12 12 12 13 13 14 14 14 14 14 14 14 14 14 14 14 14 15 15 15 15 15 16 16 16 17 17 17 17 17 18 18 18 19 19 20 20 20 20 21 22 22 23 23 23 23 23 23 23 23
15 16 17 17 17 17 17 17 17 17 17 16 16 17 16 16 15 15 15 15 15 15 14 14 15 16 16 15 14 14 14 13 13 12 12 12 12 12 13 13 14 14 14 14 14 15 15 15 15 15 15 15 15 15 16 16 16 17 17 17 18 18 18 18 19 19 19 20 20 20 21 21 21 22 22 23 23 23 23 23 24 24 24 24 24
16 15 15 16 16 16 16 16 16 16 16 16 16 16 17 16 16 17 18 18 18 17 16 15 15 16 17 17 16 15 14 14 13 13 13 13 13 13 13 13 13 14 14 14 14 15 15 15 16 16 16 16 16 17 17 17 18 18 19 19 20 20 20 20 21 20 21 21 21 22 22 23 23 23 24 24 24 24 25 25 25 26 26 26 26
16 15 14 14 14 15 16 16 16 16 16 16 16 16 15 15 15 16 16 16 16 15 14 14 13 14 15 16 16 15 14 13 13 13 13 13 13 13 13 13 13 14 14 14 14 15 15 15 16 16 17 17 18 18 18 19 19 20 20 21 21 22 22 23 23 23 23 23 23 24 24 24 25 26 26 26 26 26 26 27 27 27 28 28 28
15 15 14 14 14 15 15 15 15 15 15 16 15 14 13 13 12 12 13 13 13 13 12 11 11 10 10 11 13 13 13 12 12 12 12 12 13 13 13 13 14 14 14 15 15 16 16 16 17 17 18 19 19 20 20 20 21 21 22 22 23 23 24 24 25 25 25 26 26 26 26 26 27 28 27 27 27 28 28 27 27 28 29 29 29
14 13 13 13 13 14 14 14 14 14 14 14 14 13 13 12 12 11 11 12 12 11 10 9 9 9 9 9 10 11 11 12 12 12 12 12 13 13 13 14 14 15 15 16 17 17 18 19 19 20 20 21 21 21 22 22 23 23 24 24 24 25 25 26 26 27 27 28 28 28 28 28 29 29 29 29 29 29 29 29 29 30 30 30 31
13 12 12 12 11 12 12 13 13 13 13 13 13 13 12 12 11 10 10 10 10 10 9 9 9 9 9 9 10 10 11 11 12 12 13 13 14 14 15 15 16 16 16 17 18 19 19 20 21 22 22 23 23 24 24 25 25 26 26 26 27 27 28 28 29 29 30 30 31 31 31 31 31 31 31 31 31 31 31 31 31 31 32 32 33
11 11 11 11 11 11 12 12 13 13 12 12 12 12 11 11 10 10 10 10 10 9 9 10 10 10 10 10 10 11 11 12 12 13 14 14 15 16 16 17 17 18 18 19 19 20 21 22 23 23 24 25 25 26 27 27 28 28 29 29 30 30 31 31 31 32 33 33 34 34 34 34 34 34 34 34 33 33 33 33 32 32 33 34 34
11 11 11 11 11 11 11 12 12 12 12 12 11 11 11 11 11 11 11 11 11 10 10 10 10 10 11 11 11 12 13 13 14 14 15 16 17 17 18 18 19 20 20 21 22 22 23 24 25 26 26 27 27 28 29 30 30 31 31 32 32 33 33 33 33 34 35 35 36 36 36 36 36 36 36 36 36 35 35 35 34 34 35 35 35
10 10 11 11 11 11 11 11 11 12 12 12 11 11 11 11 11 12 12 12 12 12 12 12 12 12 12 12 13 13 14 14 15 15 16 17 18 19 19 20 21 21 22 23 24 24 25 26 27 27 28 29 29 30 31 32 32 33 33 34 35 35 35 35 35 36 36 37 37 38 38 38 38 38 38 37 37 37 37 37 37 37 37 37 37
10 10 11 11 11 11 11 11 11 12 12 12 12 11 12 12 12 12 12 12 13 13 12 13 13 13 13 13 14 14 15 16 17 17 18 19 20 20 21 22 22 23 24 25 25 26 26 27 28 28 29 30 31 32 33 34 34 35 35 36 36 37 37 37 37 38 38 38 38 38 39 39 39 39 38 38 38 38 38 39 38 38 39 39 40
10 11 11 12 12 12 12 12 12 12 12 12 12 12 12 12 12 13 13 14 14 14 14 14 14 14 14 15 16 16 17 18 19 20 21 21 22 23 23 24 25 25 26 27 27 28 28 29 29 30 30 32 33 34 35 36 37 37 38 38 39 39 39 40 40 40 40 40 40 40 40 39 39 39 39 39 39 39 40 40 40 40 41 41 41
10 11 11 12 12 12 12 12 12 13 13 13 13 13 13 13 14 14 15 15 15 15 15 16 16 16 17 18 18 19 20 21 21 22 23 23 24 25 25 26 27 28 28 29 30 30 31 32 32 33 34 35 36 37 38 38 39 39 40 41 41 41 42 42 42 42 42 41 41 41 41 41 41 41 40 41 41 41 41 42 42 42 42 41 41
11 11 12 12 12 12 12 12 13 13 13 14 14 14 14 15 15 15 16 16 17 17 17 18 19 19 20 20 21 22 22 23 23 24 25 25 26 27 28 28 29 30 30 31 32 33 34 34 35 36 37 38 39 40 40 41 42 42 43 43 44 44 44 44 45 45 45 44 43 43 43 43 43 43 43 43 43 43 43 43 42 42 41 41 41
12 12 13 13 13 13 13 13 14 14 15 15 15 15 15 16 16 16 17 18 18 19 20 20 21 21 22 22 23 24 24 25 25 26 27 27 28 29 30 30 31 32 33 33 34 35 36 37 38 39 40 41 42 42 43 44 44 45 45 45 46 46 46 46 47 47 47 47 47 46 45 45 45 45 45 45 45 44 44 43 42 41 41 41 41
13 13 14 14 14 15 15 15 15 16 16 16 16 16 16 17 17 18 18 19 20 20 21 22 22 23 23 24 24 25 26 27 27 28 28 29 30 31 31 32 33 33 34 35 36 37 38 39 40 41 42 42 43 44 44 45 45 46 47 47 47 47 47 48 48 48 48 48 48 47 47 46 47 46 46 45 45 45 44 43 42 42 41 41 40
13 14 14 15 15 15 16 16 16 16 16 17 17 17 17 18 18 19 19 20 21 21 22 22 23 24 24 25 25 26 27 27 28 29 29 30 31 31 32 33 33 34 35 35 36 37 38 39 40 41 41 42 43 43 44 44 45 46 47 47 47 48 48 48 48 49 49 49 49 48 47 47 46 46 46 46 46 45 44 43 43 42 42 41 40
14 14 14 14 15 15 15 16 16 16 16 17 17 18 18 19 19 20 20 21 21 22 22 23 23 24 25 25 26 26 27 27 28 29 30 30 31 32 32 33 33 34 34 35 36 37 38 39 39 40 41 42 42 43 43 44 45 45 45 46 46 47 47 48 48 49 49 49 49 49 48 47 46 46 47 47 46 45 45 44 43 43 42 42 41
14 14 14 14 15 15 15 16 16 17 17 17 18 18 19 20 20 20 21 22 22 22 23 23 23 24 24 25 25 26 26 27 28 29 30 30 31 32 32 33 33 34 34 35 37 38 38 39 39 40 40 41 41 41 42 42 43 43 44 44 45 46 46 46 47 48 48 47 47 47 47 47 47 47 47 46 45 45 45 44 43 42 42 41 40
14 14 15 15 15 16 16 16 17 18 18 18 18 19 19 20 21 21 21 22 23 23 23 24 24 24 25 25 25 26 27 27 28 30 30 31 32 32 33 33 34 35 35 36 37 38 38 39 39 39 39 40 40 41 42 42 43 44 44 45 45 45 46 46 46 46 46 46 46 46 46 46 46 45 45 44 44 44 44 43 42 41 40 40 39
15 16 16 16 17 17 17 18 18 19 19 19 19 20 20 20 21 22 22 23 23 24 24 24 24 25 25 25 26 26 27 28 29 30 31 32 32 33 33 34 35 35 36 37 37 37 38 38 38 39 39 40 41 41 42 42 43 44 44 44 45 45 46 46 46 45 45 44 44 44 44 43 43 42 42 42 41 41 41 41 40 39 38 38 37
17 17 17 18 18 18 19 19 19 20 20 20 20 21 21 21 21 22 22 23 23 23 23 24 24 25 25 25 26 27 28 29 30 31 31 32 32 33 33 34 34 35 35 35 36 36 36 37 37 38 39 39 39 40 40 40 41 41 42 42 42 43 43 43 43 44 43 43 42 42 41 40 39 39 39 38 38 38 37 37 36 36 35 35 34
19 19 19 19 19 19 20 20 20 20 20 21 21 21 22 22 22 22 22 22 22 22 23 23 24 24 25 26 26 27 28 28 29 30 31 31 32 32 32 33 33 33 33 33 34 34 35 35 36 36 36 36 37 37 37 38 38 38 39 39 39 39 40 40 40 40 40 40 40 39 38 37 36 36 35 34 33 33 32 31 30 30 30 30 29
19 20 20 20 20 20 20 21 21 21 21 22 22 22 22 22 22 22 22 22 22 23 23 23 24 24 25 25 26 27 28 28 29 29 29 30 30 30 31 31 31 31 31 31 32 32 33 33 34 34 34 34 35 35 35 35 36 36 37 37 37 37 37 37 37 37 37 37 36 36 35 34 33 32 32 30 29 28 27 26 26 25 25 25 24
20 20 21 21 21 21 21 21 22 22 22 22 22 23 23 23 23 23 23 23 23 23 23 23 23 24 24 25 25 26 27 27 27 28 28 28 28 29 29 29 29 29 29 29 29 30 30 30 31 31 32 32 32 33 33 33 33 34 34 35 35 35 34 34 35 35 34 34 34 33 32 32 31 31 30 28 27 25 24 24 23 23 23 23 23
21 21 21 22 22 22 22 22 22 22 22 22 22 22 22 22 22 22 22 22 22 23 23 23 23 23 23 24 24 25 25 25 26 26 26 26 27 27 27 27 27 27 27 27 27 27 27 27 28 28 29 29 30 30 31 31 31 32 32 32 33 33 33 33 33 33 33 33 33 32 31 31 30 30 29 28 25 24 23 22 21 21 22 22 22
21 21 22 21 21 21 21 21 22 22 21 21 21 21 21 21 22 22 22 22 22 22 22 23 23 23 23 23 23 24 24 24 24 24 24 25 25 25 24 24 24 24 24 25 25 25 25 25 26 26 27 27 28 28 28 29 29 29 30 30 30 30 30 31 31 31 31 31 31 30 30 29 29 29 28 26 24 22 22 21 21 21 21 20 19
20 20 21 21 20 20 20 20 20 21 21 21 21 21 21 21 21 21 21 21 21 22 22 22 22 22 22 22 22 23 23 23 23 23 23 23 23 23 22 22 22 22 22 22 23 23 23 24 24 25 25 26 27 27 27 28 28 28 28 28 27 27 27 26 27 27 27 27 27 26 26 26 26 25 24 23 22 21 21 20 19 19 18 18 18
19 19 20 20 20 20 20 20 20 20 20 20 20 20 20 20 20 20 20 20 20 21 21 21 21 21 21 22 22 22 22 22 22 22 22 22 22 21 21 21 21 21 21 21 21 22 22 23 24 24 25 25 26 26 26 27 26 26 26 25 24 23 22 21 21 20 20 20 20 20 21 21 21 21 20 20 20 20 19 18 17 17 17 17 17
19 19 19 20 20 20 20 20 20 20 20 20 20 19 19 19 19 19 19 19 19 20 20 20 20 20 21 21 21 21 20 20 20 20 20 20 20 20 20 20 20 20 20 21 21 21 22 23 23 24 24 24 25 25 25 24 24 24 23 22 20 19 18 17 17 16 15 14 14 13 13 14 15 16 16 17 17 17 17 16 16 17 17 17 17
19 19 19 19 20 20 20 20 20 20 19 19 19 19 19 19 19 18 18 18 19 19 19 18 18 19 19 19 19 19 19 19 19 19 19 18 18 19 18 19 19 20 20 20 21 21 21 22 22 23 23 23 23 23 22 21 21 20 19 17 16 15 15 14 13 12 11 9 8 7 7 8 10 12 13 14 14 15 15 15 16 16 16 16 17
19 19 19 19 19 19 19 19 19 19 18 18 18 18 18 18 18 18 18 17 17 17 17 16 16 16 16 17 17 17 17 17 17 17 16 16 17 17 17 18 18 19 19 20 20 20 21 21 22 22 22 21 21 21 19 18 17 16 15 14 13 12 11 10 10 8 7 7 7 7 8 9 10 11 12 12 12 13 14 14 14 15 15 15 15
19 19 18 18 18 18 18 18 18 18 17 17 17 17 17 17 17 16 16 16 15 15 14 14 13 13 14 14 15 15 15 15 15 15 15 15 15 16 17 17 18 18 18 19 19 20 20 20 20 20 20 20 20 19 17 15 13 12 12 11 10 9 8 8 7 6 6 7 7 7 8 9 9 10 10 10 10 11 11 12 12 12 12 12 12
18 18 18 17 17 18 18 17 17 17 16 16 16 16 16 15 15 14 14 13 13 12 12 12 12 13 13 13 14 14 13 14 14 14 14 15 15 16 16 17 17 17 18 18 18 19 18 19 19 19 18 18 18 16 14 12 11 10 9 9 7 6 6 6 5 4 4 6 6 6 7 8 8 9 9 9 9 9 9 9 9 9 9 9 9
17 17 17 16 16 16 16 16 15 15 15 14 14 14 13 13 12 12 12 11 11 11 11 11 11 12 12 13 13 13 13 13 14 14 15 15 15 16 17 17 17 17 17 17 17 17 17 17 17 17 16 16 15 14 12 11 10 8 7 6 5 4 4 3 3 2 3 4 5 6 6 7 7 7 8 8 8 8 8 7 7 7 7 7 7
16 16 15 15 15 14 14 13 13 13 13 13 12 12 11 11 11 10 10 10 10 10 10 10 10 11 11 12 12 13 13 14 14 15 15 15 16 16 17 17 17 17 17 17 16 16 16 16 15 15 14 13 13 12 11 10 9 7 6 5 4 4 3 2 2 2 2 3 5 5 6 6 6 6 7 7 7 7 7 7 7 7 7 7 7
15 15 14 14 13 13 12 12 11 11 11 11 10 10 9 9 9 9 8 8 9 9 9 9 10 11 11 12 12 12 13 14 14 15 15 16 16 17 17 17 17 17 16 16 15 15 14 14 13 12 12 12 12 12 11 9 7 6 5 4 4 3 3 2 2 2 3 4 5 6 6 6 6 6 6 6 6 6 6 7 8 8 7 7 7
15 14 13 13 12 12 11 11 10 10 10 10 9 9 8 8 7 7 7 7 8 8 8 9 9 10 10 11 11 12 13 13 14 15 15 15 16 16 16 16 16 16 15 14 13 13 12 12 11 10 10 10 11 10 9 7 5 4 4 4 4 4 4 3 3 3 3 4 4 5 6 6 6 6 6 6 6 6 6 7 7 7 7 7 7
14 13 13 12 12 11 11 10 10 10 10 9 8 8 7 7 7 7 7 7 7 7 8 8 9 9 9 10 11 12 12 13 14 14 14 14 14 14 14 14 14 13 12 12 11 11 10 10 9 9 9 9 9 9 8 6 4 4 4 4 4 4 4 5 4 4 4 4 4 4 5 5 4 5 5 5 5 5 5 6 6 6 6 6 6
14 13 13 12 12 11 11 11 10 10 9 9 8 8 7 7 6 6 6 6 6 7 7 7 8 8 9 10 10 11 12 12 13 13 13 13 12 12 12 12 11 11 10 10 10 9 9 9 9 9 9 9 9 9 7 5 4 4 5 5 5 5 5 5 5 4 4 4 4 5 4 4 4 4 4 4 4 4 4 4 5 5 5 5 5
14 13 13 12 12 11 11 11 11 10 9 9 8 8 7 7 6 6 6 6 6 6 6 7 7 8 8 9 10 11 11 11 11 11 11 11 11 11 10 10 10 10 10 9 9 9 8 8 8 8 8 8 8 8 7 6 5 5 5 5 5 5 5 5 5 5 4 4 4 4 4 5 5 5 4 4 3 4 4 4 4 5 5 5 5
14 14 14 13 12 12 12 12 11 10 9 9 8 8 7 7 6 6 5 5 6 6 6 7 7 8 8 9 9 10 10 10 10 10 10 10 10 10 10 10 10 10 9 9 9 8 8 8 7 7 7 7 8 8 7 6 5 5 5 5 5 4 4 4 5 5 5 4 4 4 4 4 5 5 5 4 4 4 4 5 5 5 5 5 5
Wind_Direction
214 210 207 204 200 197 195 193 195 198 199 199 200 202 204 204 206 208 210 212 214 215 219 222 224 226 228 230 230 230 232 233 232 231 231 232 233 235 235 233 233 234 234 234 233 231 228 226 226 226 226 227 225 223 223 222 220 220 223 230 235 235 235 234 227 222 226 230 232 233 231 232 237 239 242 247 248 251 256 261 265 268 272 276 277
211 208 204 201 197 193 192 193 196 198 198 199 201 203 204 206 208 210 211 214 217 221 224 227 229 231 233 235 234 231 232 234 234 233 232 232 233 233 233 232 231 231 231 230 229 228 226 225 226 225 225 224 221 221 221 218 216 219 224 231 235 234 233 234 228 222 226 230 233 236 236 238 242 243 245 251 254 255 258 261 266 269 270 273 276
206 204 200 196 194 192 194 195 196 198 199 201 202 203 205 207 210 212 215 218 222 227 230 232 234 235 236 237 234 231 232 234 235 234 233 234 233 232 232 231 230 230 230 229 227 228 226 225 226 227 226 223 221 221 219 217 219 221 225 231 236 235 234 235 232 228 230 234 237 240 241 244 248 249 250 254 258 259 260 262 265 268 270 271 275
200 198 196 193 192 193 195 196 197 199 200 201 202 204 206 209 212 215 218 223 227 231 233 234 235 236 236 236 235 233 233 236 238 237 235 236 235 232 231 230 230 229 230 232 231 229 228 226 226 227 226 223 222 222 220 219 223 225 228 233 237 237 236 237 238 238 237 239 243 246 247 249 253 254 254 256 259 261 261 264 266 268 271 273 275
194 194 192 190 191 193 194 194 196 198 200 202 203 204 207 211 214 218 221 226 230 232 232 233 235 237 238 239 239 238 238 239 242 241 238 236 235 233 231 231 231 230 231 234 234 231 230 228 226 226 226 225 223 222 222 223 226 229 231 234 237 239 239 239 243 246 246 246 248 250 251 253 256 258 258 258 260 261 263 266 268 268 271 272 275
191 191 190 189 190 192 192 192 195 198 201 203 204 205 209 212 216 220 224 227 230 231 232 234 237 240 241 242 242 243 243 243 244 244 240 236 234 232 230 230 231 231 232 235 236 233 232 231 228 226 226 226 225 225 225 226 228 231 233 236 238 240 242 243 246 249 251 253 253 252 254 256 257 259 260 260 261 263 265 267 268 269 270 272 274
193 192 191 190 191 193 193 194 197 201 204 205 206 209 212 215 219 223 226 228 230 232 235 236 238 241 243 244 244 244 245 245 245 243 238 234 232 231 230 229 230 231 234 237 238 236 234 232 230 228 228 228 228 228 229 229 231 234 237 239 241 243 246 248 249 252 254 257 257 255 256 257 258 260 262 262 264 266 267 268 268 269 270 272 274
193 192 192 193 195 196 198 199 202 205 206 206 208 212 215 219 223 225 227 230 232 234 235 236 239 242 243 243 244 245 246 245 244 241 236 233 232 232 232 233 233 234 236 238 240 240 238 235 232 231 230 231 231 231 232 234 236 238 240 242 244 246 249 251 252 254 256 258 259 258 259 259 259 261 264 263 265 267 268 268 269 269 270 272 274
193 192 193 195 197 199 201 202 203 206 208 210 212 215 218 222 224 226 228 231 233 235 236 236 239 241 242 243 244 245 246 245 242 241 237 234 234 235 236 236 237 238 239 241 242 243 243 240 236 234 233 233 233 234 236 238 240 242 244 245 247 249 252 253 255 256 257 258 259 260 261 261 260 261 262 263 265 268 268 269 270 271 271 271 273
194 194 195 197 200 203 205 206 207 210 211 213 215 217 221 224 224 224 226 229 232 235 238 239 239 240 241 242 242 243 243 243 242 241 239 237 236 238 238 239 239 239 241 243 243 244 244 242 240 238 237 236 236 237 239 242 244 247 249 250 250 252 254 255 257 258 259 260 260 261 262 262 263 262 263 265 268 269 270 270 271 272 272 272 272
197 197 197 198 200 203 205 208 211 214 214 214 216 219 223 225 226 229 234 236 239 242 245 245 244 241 239 239 241 242 242 243 243 242 242 241 239 238 240 240 240 240 243 245 246 246 245 243 242 240 240 239 240 242 245 248 249 252 254 255 256 257 257 258 260 261 262 262 263 263 264 265 266 266 267 269 270 270 271 272 272 272 273 273 273
200 198 197 199 201 204 208 211 214 217 217 218 219 222 225 230 237 242 243 243 244 246 248 248 247 244 240 239 240 240 240 242 244 243 243 244 242 241 241 242 242 242 243 245 246 246 245 244 243 243 243 245 247 249 251 252 253 255 257 259 260 261 261 262 262 263 264 265 266 266 267 269 270 269 270 271 272 272 272 273 273 273 274 274 274
201 201 203 205 207 208 210 213 216 218 219 219 220 224 228 234 240 241 240 240 241 242 243 242 242 242 239 235 234 233 235 240 242 242 243 245 245 244 243 244 243 243 244 245 246 245 244 244 245 246 248 250 251 252 253 254 255 256 258 260 261 262 263 264 264 265 266 267 268 269 270 271 271 272 272 273 273 273 274 274 274 274 275 275 276
202 205 207 208 209 209 211 214 216 217 218 218 218 221 226 229 231 231 231 234 235 235 235 234 234 234 230 225 225 228 234 240 243 245 247 248 248 247 246 247 247 247 248 248 248 247 246 247 249 251 253 253 253 254 254 255 256 257 259 261 262 263 264 264 265 265 267 268 269 270 272 272 273 273 274 273 273 274 274 274 275 275 276 277 278
197 198 199 200 204 207 210 213 214 215 217 217 216 219 222 224 226 227 228 228 228 228 228 226 227 228 225 223 225 230 237 243 246 248 249 250 250 250 250 251 252 252 252 252 252 252 252 252 254 256 257 257 257 257 258 259 259 260 261 262 263 264 264 265 265 267 268 269 269 270 272 273 273 273 273 273 273 274 274 274 275 276 276 276 277
187 189 192 196 200 203 205 207 208 210 212 213 215 218 220 222 225 225 223 223 225 226 226 225 227 229 230 231 233 236 241 247 250 251 252 254 254 253 254 255 256 256 256 256 256 257 256 257 257 258 259 260 259 259 261 262 262 263 263 264 264 265 265 266 266 268 269 270 270 271 272 272 272 273 273 273 273 274 274 274 275 276 275 276 276
188 191 195 198 200 201 202 203 204 206 208 210 212 216 218 221 223 223 221 223 225 226 227 229 230 232 235 239 242 244 247 251 254 254 256 258 258 257 258 258 259 259 260 261 261 261 260 260 260 260 261 261 261 261 262 263 264 264 265 265 266 266 267 267 267 268 269 270 271 271 272 272 272 272 273 272 272 273 273 274 274 275 275 276 277
192 195 197 199 200 201 202 202 203 206 209 210 212 216 219 222 225 225 225 227 230 231 233 235 236 239 242 246 250 251 251 254 257 258 260 263 262 262 262 262 262 262 263 264 264 263 263 262 263 262 263 263 264 264 264 264 265 265 266 266 267 267 268 268 268 269 270 270 270 271 271 271 271 271 271 271 271 271 272 273 274 274 275 276 277
192 194 196 198 199 200 203 204 205 207 211 214 216 220 223 226 228 230 231 233 236 238 239 241 245 249 250 251 254 255 254 256 260 262 264 267 267 266 266 266 265 266 266 266 266 266 265 264 264 265 265 265 266 266 266 266 266 266 267 267 267 268 268 268 268 269 270 271 271 271 271 271 271 270 270 270 269 269 270 272 273 274 275 276 277
197 197 198 200 202 204 207 209 210 212 216 219 222 225 227 229 230 232 235 237 240 241 244 247 251 256 258 257 257 258 259 261 264 267 269 271 271 270 269 269 269 269 269 269 269 268 268 267 267 267 267 267 268 268 268 268 267 267 268 268 268 269 270 270 270 270 271 271 271 271 271 271 270 271 271 270 270 270 270 271 272 274 275 276 278
204 205 205 207 208 210 213 217 219 221 224 226 229 231 233 235 236 238 240 243 244 245 248 252 256 259 261 261 261 262 264 266 268 270 271 272 273 273 271 270 271 271 271 271 270 270 269 269 269 269 269 270 270 270 269 269 269 268 268 269 270 271 272 271 271 272 272 272 272 271 271 271 270 270 270 270 271 271 271 272 273 274 275 277 277
212 212 212 213 215 217 220 223 226 229 232 233 234 236 238 240 242 244 245 246 247 249 253 256 259 260 261 263 264 266 267 269 270 271 272 273 273 273 272 271 272 271 271 271 271 270 270 270 270 271 272 271 271 271 271 271 271 270 270 271 272 272 272 272 272 272 272 273 272 271 271 270 270 270 270 271 271 271 272 272 274 275 276 277 276
219 219 219 221 223 225 228 230 232 234 236 238 239 241 243 244 246 247 248 249 251 254 258 261 263 264 265 266 267 268 269 271 272 273 274 274 274 274 273 273 273 272 272 272 271 271 271 271 272 273 273 272 272 272 272 272 272 272 272 272 272 272 272 272 272 272 272 271 271 271 271 270 270 270 271 271 272 272 273 273 274 275 276 276 276
225 225 227 228 229 231 233 236 238 239 240 241 242 244 245 247 248 249 250 252 255 259 262 264 266 267 268 269 270 271 272 273 274 275 276 275 275 275 275 274 274 274 273 272 272 272 272 273 273 274 274 274 274 273 273 272 272 272 272 272 272 272 272 272 272 272 271 271 270 270 271 271 270 270 271 271 272 272 273 273 274 274 274 275 275
231 232 233 234 235 236 237 239 241 242 243 243 244 246 247 248 249 251 253 256 259 262 265 266 268 269 271 272 273 274 275 275 276 276 277 277 276 276 276 276 275 275 275 274 274 274 274 275 275 275 275 275 274 274 274 273 272 272 273 273 272 272 272 272 271 271 271 271 270 270 270 270 270 270 270 270 271 272 272 272 273 273 273 273 273
235 237 238 239 240 242 243 244 245 246 247 247 249 250 251 252 253 256 258 261 263 265 267 269 270 271 273 274 275 275 276 277 277 278 278 278 278 277 277 277 276 276 276 276 276 276 276 276 276 276 276 276 275 275 275 274 274 273 273 273 272 272 272 271 271 271 271 270 270 270 270 270 269 269 270 270 271 271 271 271 271 272 272 271 272
238 240 242 242 242 244 246 248 248 250 251 252 253 254 255 256 258 260 262 264 266 268 270 272 273 274 275 276 277 277 278 278 279 280 281 281 281 280 280 279 279 278 278 278 278 279 279 278 278 278 277 277 276 275 275 275 274 274 273 273 272 272 272 271 271 271 271 271 270 271 270 269 269 270 270 270 270 270 270 270 270 270 270 270 270
243 244 246 246 246 247 250 251 251 253 254 255 257 258 260 261 263 265 268 269 271 272 273 275 276 277 277 278 278 279 279 280 281 282 283 283 282 282 282 282 281 281 281 281 281 281 281 280 280 279 279 278 277 277 276 276 275 275 274 274 274 273 273 272 272 271 271 271 271 271 270 269 270 270 270 269 269 269 269 269 268 268 268 268 269
245 247 249 251 252 253 254 254 255 256 257 259 261 264 267 269 270 271 273 275 276 276 277 278 279 279 279 279 280 280 280 281 283 284 284 283 283 283 283 283 283 283 283 283 283 283 282 281 281 281 280 279 279 278 278 277 276 276 275 275 275 274 274 273 272 272 271 271 271 270 270 269 270 269 268 268 267 267 267 267 267 267 268 268 269
248 250 253 255 257 258 260 260 261 262 263 265 266 269 272 275 276 276 277 278 278 278 278 279 280 280 280 280 281 281 282 283 284 285 284 284 283 283 283 283 284 284 284 284 284 283 283 282 282 281 281 280 280 280 279 278 278 277 276 276 275 274 274 274 273 272 272 271 271 271 270 270 270 269 268 267 267 266 266 266 266 266 267 267 267
254 257 258 260 261 263 265 266 266 266 267 269 270 271 273 275 278 279 278 277 277 278 278 279 280 280 280 281 282 282 283 285 286 286 286 285 284 284 284 284 284 285 285 286 285 285 284 284 283 283 283 282 282 281 281 280 280 279 278 277 277 276 275 275 274 274 273 271 271 270 270 269 269 268 267 266 266 266 265 265 265 265 266 266 266
259 260 262 263 264 266 268 269 270 270 270 271 272 273 274 274 276 278 279 278 277 278 278 279 280 281 281 282 283 283 285 287 288 288 288 287 286 286 286 286 286 286 286 287 287 287 287 286 286 285 285 284 284 284 283 283 282 281 280 280 279 278 277 277 276 275 274 272 271 270 268 268 268 267 266 266 265 263 263 263 264 265 264 263 262
261 262 262 263 265 266 268 270 271 272 272 273 274 275 275 275 275 276 277 277 278 278 280 281 281 282 282 284 285 286 287 289 290 290 289 289 288 287 287 286 286 287 288 288 289 289 289 288 288 287 286 286 285 285 284 284 283 283 282 281 280 279 278 278 277 276 274 272 271 269 267 266 265 264 264 263 261 260 260 261 262 261 258 257 258
263 263 263 264 265 266 268 269 270 271 272 273 274 275 275 275 275 276 276 277 277 278 279 281 282 283 284 285 287 288 289 290 291 290 290 290 290 289 288 287 287 289 290 291 291 292 291 291 290 289 288 287 287 286 285 285 285 284 284 283 283 281 280 279 278 276 275 273 271 268 266 264 262 260 259 257 256 257 257 257 255 254 255 257 258
264 264 264 265 266 267 268 270 271 272 272 273 274 275 275 275 275 276 277 278 278 279 280 281 283 285 286 287 289 289 290 291 291 291 291 292 292 291 291 290 290 290 291 292 293 294 294 294 293 292 291 290 289 288 288 287 287 286 286 286 285 283 281 280 278 276 274 272 270 267 264 261 259 256 254 253 253 253 251 250 251 254 257 258 259
265 265 265 266 268 268 269 271 272 272 272 274 275 277 277 277 277 277 278 278 279 281 281 283 284 285 286 287 289 289 290 291 293 292 292 293 293 293 293 292 292 292 292 293 295 296 296 296 296 295 294 293 292 291 291 290 290 290 289 288 287 285 283 281 279 277 275 273 270 266 263 260 256 252 250 249 247 246 245 248 252 255 255 256 257
266 266 266 266 267 268 269 271 272 272 272 274 275 277 278 279 278 278 279 279 280 281 282 284 285 285 286 288 290 290 291 292 292 292 292 293 294 295 294 293 294 294 294 295 297 298 298 299 299 299 298 297 295 294 294 293 293 293 292 291 289 287 286 284 282 280 277 275 271 265 260 256 251 247 244 242 240 240 243 247 250 251 252 253 254
267 268 267 266 266 268 269 270 272 272 273 273 274 276 278 279 279 279 279 280 281 282 283 284 286 286 288 290 291 292 292 292 292 293 294 295 296 296 296 296 296 296 296 298 300 300 301 301 302 302 302 301 299 297 296 295 295 295 294 293 291 289 288 287 286 284 281 277 271 263 256 249 244 240 237 236 235 237 240 242 245 248 250 251 250
267 270 270 267 266 268 270 271 272 272 272 273 273 275 277 279 280 280 280 281 282 283 284 285 286 288 289 290 291 292 293 294 295 296 297 297 298 298 297 297 298 298 299 300 302 303 303 304 305 306 306 305 303 302 300 298 298 297 296 294 292 291 290 289 289 288 283 276 267 258 248 240 234 231 229 229 230 233 236 240 244 247 247 247 247
267 269 270 268 267 268 269 270 271 272 271 272 273 274 277 279 279 280 280 282 283 284 284 285 286 288 289 291 292 293 294 295 297 298 299 299 299 299 299 299 300 301 301 302 303 305 305 306 307 308 309 308 308 307 305 303 302 300 298 295 294 293 291 289 289 288 281 267 253 241 228 218 215 217 221 224 229 234 238 242 245 246 247 248 249
267 268 270 270 270 269 269 269 270 270 270 271 273 274 276 278 279 279 280 281 282 283 284 285 287 289 291 293 293 293 294 296 298 299 300 302 302 302 302 303 303 303 303 303 304 305 307 308 310 311 311 312 312 312 311 309 306 304 301 298 296 296 295 291 288 283 268 248 235 229 223 218 218 223 226 228 231 235 239 242 244 245 247 248 248
267 268 269 270 270 270 270 270 269 269 269 271 272 274 275 276 277 278 279 280 281 282 283 284 286 290 293 294 294 294 296 298 299 301 302 304 305 305 305 305 306 306 306 305 305 307 309 311 312 312 312 314 315 315 314 311 306 304 304 301 298 297 298 296 291 279 254 235 227 225 226 226 227 228 225 223 227 232 236 238 240 242 244 244 243
266 267 268 269 269 270 270 269 268 268 269 270 271 273 274 275 275 275 277 278 279 280 282 284 286 289 292 294 296 298 299 300 301 303 305 306 308 308 308 308 309 310 310 309 308 309 311 312 312 313 314 316 317 316 313 308 304 303 307 309 305 302 303 299 288 270 249 233 223 221 224 225 224 220 217 219 225 230 231 233 234 236 237 237 235
266 266 267 268 269 270 270 268 266 265 266 266 268 270 271 272 272 272 273 275 277 279 281 284 287 290 293 296 298 300 301 302 303 304 305 307 309 309 310 310 311 313 313 313 312 312 312 313 313 315 318 320 321 321 318 312 306 304 308 310 307 308 314 308 281 257 242 223 213 215 222 223 219 217 219 222 226 227 227 228 229 226 225 224 225
264 264 265 266 267 268 268 265 263 262 261 261 264 267 268 267 268 268 269 272 275 279 282 286 289 293 297 299 301 302 303 304 305 306 306 306 308 309 309 310 311 313 314 314 312 312 312 313 315 317 320 325 328 328 325 319 313 307 305 303 298 300 312 313 281 244 223 212 213 220 227 226 221 220 222 224 226 228 227 225 222 219 217 218 221
261 262 262 262 263 264 263 261 259 258 257 257 259 261 262 262 262 264 268 272 276 280 284 288 293 297 300 302 304 305 306 306 307 308 307 307 307 308 309 309 310 311 311 311 310 310 312 314 315 319 324 330 333 331 327 321 315 309 306 303 297 292 291 291 276 250 232 228 231 232 231 228 224 223 223 226 229 230 227 224 224 224 224 226 228
257 258 258 257 257 257 257 256 254 253 252 251 253 256 257 257 258 263 268 273 278 283 286 290 295 299 302 304 306 308 309 309 309 310 311 310 310 310 310 310 310 310 310 309 308 309 311 315 318 322 327 332 335 335 332 325 316 311 309 305 299 286 272 272 277 268 252 245 241 235 230 228 227 226 228 231 232 230 230 230 231 233 235 234 234
252 253 253 252 251 251 251 250 249 248 246 246 249 251 251 251 254 261 267 273 280 285 290 294 298 301 303 306 309 311 312 313 313 314 314 313 313 313 313 313 313 313 312 311 309 309 311 315 318 322 325 328 332 335 335 327 314 308 307 306 302 289 269 264 269 268 258 250 244 236 231 228 226 227 231 234 232 231 233 232 230 230 233 233 233
248 249 249 248 247 247 247 246 244 242 241 242 243 243 243 246 252 259 266 274 282 287 291 295 299 302 305 309 312 314 316 317 318 318 318 317 317 318 318 317 317 318 318 316 314 313 312 312 313 315 320 324 329 332 331 321 307 303 303 303 304 296 275 261 260 259 254 248 244 239 232 226 223 225 228 230 229 228 226 221 217 216 221 226 231
246 246 245 245 245 244 243 241 239 237 236 237 237 236 238 242 248 255 263 272 281 287 292 297 302 306 310 313 316 318 319 320 322 323 324 324 325 326 325 323 321 321 321 321 319 316 314 312 311 312 317 323 328 331 329 319 306 303 305 306 307 303 285 265 255 254 254 250 245 240 235 232 233 234 235 233 231 225 217 212 212 213 216 221 230
245 244 243 242 243 242 239 236 234 233 232 232 231 231 233 237 243 251 260 269 278 285 291 298 305 310 314 317 320 322 324 325 326 328 329 330 331 332 331 329 327 324 322 322 321 319 317 316 315 316 319 324 330 334 333 325 311 302 301 304 306 304 292 272 257 250 248 247 245 241 237 234 234 236 236 233 231 228 222 217 217 220 223 229 238